TimeCST,TemperatureF,Dew PointF,Humidity,Sea Level PressureIn,VisibilityMPH,Wind Direction,Wind SpeedMPH,Gust SpeedMPH,PrecipitationIn,Events,Conditions,WindDirDegrees,DateUTC
12:28 AM,66.2,62.6,88,29.89,9.0,North,11.5,-,N/A,,Overcast,360,2013-02-11 06:28:00
12:39 AM,66.2,62.6,88,29.89,9.0,North,13.8,-,N/A,,Overcast,10,2013-02-11 06:39:00
12:53 AM,66.0,62.1,87,29.89,9.0,North,17.3,-,N/A,,Overcast,360,2013-02-11 06:53:00
1:53 AM,64.9,61.0,87,29.88,9.0,North,13.8,-,N/A,,Overcast,360,2013-02-11 07:53:00
2:53 AM,64.0,60.1,87,29.89,8.0,NNW,11.5,-,N/A,,Overcast,340,2013-02-11 08:53:00
3:33 AM,64.4,57.2,77,29.89,10.0,NNW,11.5,-,N/A,,Overcast,340,2013-02-11 09:33:00
3:53 AM,64.9,57.9,78,29.88,10.0,NNW,10.4,-,N/A,,Overcast,340,2013-02-11 09:53:00
4:53 AM,64.9,55.9,73,29.89,10.0,NW,9.2,-,N/A,,Overcast,320,2013-02-11 10:53:00
5:21 AM,64.4,53.6,68,29.89,10.0,NNW,10.4,-,N/A,,Overcast,340,2013-02-11 11:21:00
5:53 AM,64.9,52.0,63,29.89,10.0,North,8.1,-,N/A,,Overcast,350,2013-02-11 11:53:00
6:53 AM,66.0,55.0,68,29.91,10.0,North,9.2,-,N/A,,Overcast,10,2013-02-11 12:53:00
7:53 AM,64.9,54.0,68,29.94,10.0,NNW,9.2,-,N/A,,Overcast,340,2013-02-11 13:53:00
8:43 AM,66.2,53.6,64,29.95,10.0,NNW,10.4,-,N/A,,Overcast,340,2013-02-11 14:43:00
8:53 AM,66.0,53.1,63,29.95,10.0,North,9.2,-,N/A,,Overcast,350,2013-02-11 14:53:00
9:07 AM,66.2,53.6,64,29.95,10.0,NNW,6.9,-,N/A,,Overcast,340,2013-02-11 15:07:00
9:25 AM,68.0,53.6,60,29.95,10.0,North,8.1,-,N/A,,Overcast,360,2013-02-11 15:25:00
9:53 AM,69.1,54.0,58,29.96,10.0,NNW,6.9,-,N/A,,Overcast,330,2013-02-11 15:53:00
10:34 AM,71.6,55.4,57,29.97,10.0,NW,9.2,-,N/A,,Overcast,310,2013-02-11 16:34:00
10:53 AM,71.1,55.0,57,29.96,10.0,NNW,6.9,-,N/A,,Overcast,340,2013-02-11 16:53:00
11:53 AM,73.9,57.0,55,29.94,10.0,NW,4.6,-,N/A,,Overcast,310,2013-02-11 17:53:00
12:42 PM,77.0,59.0,54,29.92,10.0,North,8.1,-,N/A,,Scattered Clouds,350,2013-02-11 18:42:00
12:53 PM,79.0,59.0,50,29.91,10.0,NNE,4.6,-,N/A,,Partly Cloudy,20,2013-02-11 18:53:00
1:53 PM,81.0,57.9,45,29.86,10.0,NNW,3.5,-,N/A,,Clear,340,2013-02-11 19:53:00
2:53 PM,84.0,60.1,44,29.84,10.0,NNE,9.2,-,N/A,,Clear,20,2013-02-11 20:53:00
3:53 PM,84.0,62.1,47,29.80,10.0,ENE,10.4,-,N/A,,Clear,70,2013-02-11 21:53:00
4:53 PM,82.9,64.0,53,29.80,10.0,East,5.8,-,N/A,,Partly Cloudy,80,2013-02-11 22:53:00
5:53 PM,81.0,64.9,58,29.81,10.0,NE,16.1,21.9,N/A,,Scattered Clouds,50,2013-02-11 23:53:00
6:53 PM,73.0,63.0,71,29.83,10.0,NNE,9.2,18.4,N/A,,Mostly Cloudy,30,2013-02-12 00:53:00
7:30 PM,69.8,62.6,78,29.85,10.0,NE,12.7,18.4,N/A,,Overcast,50,2013-02-12 01:30:00
7:53 PM,69.1,62.1,78,29.86,10.0,NNE,11.5,-,N/A,,Overcast,30,2013-02-12 01:53:00
8:44 PM,66.2,62.6,88,29.88,10.0,NNE,12.7,-,N/A,,Overcast,20,2013-02-12 02:44:00
8:53 PM,66.0,61.0,84,29.88,10.0,NNE,11.5,-,N/A,,Overcast,20,2013-02-12 02:53:00
9:53 PM,64.9,61.0,87,29.89,10.0,NE,12.7,-,N/A,,Overcast,40,2013-02-12 03:53:00
10:53 PM,64.9,62.1,90,29.88,10.0,NE,8.1,-,N/A,,Overcast,40,2013-02-12 04:53:00
11:53 PM,64.9,62.1,90,29.88,10.0,North,8.1,-,N/A,,Overcast,10,2013-02-12 05:53:00